LLHALCLK

Guest
Details From LLHA - Haifa
To LCLK - Larnaca
Flight Number -
Tags generated
Created
Modified
Stats Distance 143 nm / 265 km
Max Altitude 18,100 ft / 5,517 m
Waypoints 3
Social Downloads 0
Likes 0
Share VATSIM

Download

Looking for another format? Having issues loading an existing format? Contact us
Advertisement - Login to hide

Notes

Basic altitude profile: - Ascent Rate: 500ft/min - Ascent Speed: 80kts - Cruise Altitude: 6500ft - Cruise Speed: 110kts - Descent Rate: 700ft/min - Descent Speed: 100kts Options: - Use NATs: no - Use PACOTS: no - Use low airways: yes - Use high airways: no

Route

LLHA LITAN LCLK

ID Type Via Altitude Latitude Longitude Leg Dist Tot Dist Heading (true) Name
O LLHA APT - 0 ft / 0 m 32.81113˚ 35.04414˚ - 0 nm - Haifa
LITAN FIX - 18,100 ft / 5,517 m 33.58222˚ 34.63306˚ 50 nm 50 nm 336° / 336° -
O LCLK APT - 0 ft / 0 m 34.87512˚ 33.62483˚ 92 nm 143 nm 327° / 327° Larnaca

Altitude Profile

Advertisement - Login to hide

LLHA

Details ICAO LLHA (HFA)
Name Haifa
Region Israel
Timezone Asia/Jerusalem (UTC+2.0)
Stats Elevation 28 ft / 9 m (AMSL)
Location 32.811125° 35.044139°
Runways 1
Magnetic Variation 4.782° E

METAR

LLHA 171550Z VRB03KT CAVOK 20/05 Q1019

Decode

TAF

TAF LLHA 170522Z 1706/1806 13010KT CAVOK PROB40 1800/1806 13015KT TX23/1712Z TN15/1804Z

Decode

Departure Runways

ID Width Length Bearing (true) Bearing (mag) Surface Threshold Offset Overrun Length
16 98 ft / 30 m 4,161 ft / 1,268 m 158.88° 154.10° Asphalt 164 ft / 50 m 0 ft / 0 m
34 98 ft / 30 m 4,161 ft / 1,268 m 338.88° 334.10° Asphalt 380 ft / 116 m 90 ft / 27 m

LCLK

Details ICAO LCLK (LCA)
Name Larnaca
Region Cyprus
Timezone Asia/Nicosia (UTC+2.0)
Stats Elevation 8 ft / 2 m (AMSL)
Location 34.875115° 33.624832°
Runways 1
Magnetic Variation 4.991° E

METAR

LCLK 171600Z 06006KT 9999 FEW020 SCT040 19/14 Q1019 NOSIG

Decode

TAF

TAF LCLK 171130Z 1712/1812 15010KT 9999 FEW025 BECMG 1716/1720 32006KT BECMG 1807/1810 18010KT

Decode

Destination Runways

ID Width Length Bearing (true) Bearing (mag) Surface Threshold Offset Overrun Length
04 148 ft / 45 m 9,771 ft / 2,978 m 45.15° 40.16° Asphalt 0 ft / 0 m 210 ft / 64 m
22 148 ft / 45 m 9,771 ft / 2,978 m 225.17° 220.18° Asphalt 575 ft / 175 m 0 ft / 0 m

Approach Navaids

Runway Type Ident Frequency Range Bearing (true) Bearing (mag) Slope Elevation
22 Localiser ILC 110.30 MHz 18 nm / 33 km 225.17° 220.18° - 8 ft / 2 m (AMSL)
22 Glidescope ILC 110.30 MHz 10 nm / 19 km 225.16° 220.17° 2.75° 24 ft / 7 m (AMSL)
22 DME ILC 110.30 MHz 18 nm / 33 km - - - 20 ft / 6 m (AMSL)

Popular Alternatives